Onde está Otta en Portugal?

 

Otta está situado na região Lisboa em Portugal!

Buscar o nome de uma cidade:

Ottawanah, Ottawa, Ottawa, Ottawa, Ottawa Hills

Aqui você vai encontrar a localização de Otta em um mapa.
Para ver como ele atualmente parece, abaixo estão algumas fotos da região, com webcams online.
Você também pode encontrar a distância para as principais cidades da região e de cidades do resto do Portugal.

Todos os lugares do mundo chamado .


Onde está Otta no mapa?




Webcams perto Otta

Benavente › North-East: AIrport, METAR: BENAV 180005Z 36004KT 17/14 Q1015.


Benavente › North-East: AIrport, METAR: BENAV 180005Z 36004KT 17/14 Q1015 - Dia
Actual
Benavente › North-East: AIrport, METAR: BENAV 180005Z 36004KT 17/14 Q1015 - Actual

Silveira: Santa Cruz (Live HD°).


Silveira: Santa Cruz (Live HD°) - Dia
Actual
Silveira: Santa Cruz (Live HD°) - Actual

Caldas da Rainha.


Caldas da Rainha - Dia
Actual
Caldas da Rainha - Actual

Webcams provided by webcams.travel


Distâncias

Onde está Otta em relação a outros lugares?

Top 10 cidades em Lisboa e distância de Otta.

Cidade#Populaçãokmmilhas
Lisbon15177984528
Amadora21788564528
Queluz31033984528
Loures4662303522
Rio de Mouro5546954830
Odivelas6546233924
São Domingos de Rana7467175534
Cascais8364366037
Alcabideche9333155534
Póvoa de Santa Iria10289002918

Top 10 cidades em Portugal e distância de Otta.

Cidade # Populaçãokmmilhas
Lisbon15177984528
Porto2249630229142
Amadora31788564528
Braga4121393275171
Setúbal51171096440
Coimbra610658013081
Queluz71033984528
Funchal8980411012629
Vila Nova de Gaia970810227141
Loures10662303522



Info

Estatística e Geografia

Portugal é composta de 15299 cidades em 20 regiões.

A região de Lisboa tem 1032 cidades.

Otta é o número 692 na região Lisboa.

A cidade é o número 9336 na Portugal.

Onde está Otta en Portugal?